GFSMA_con_sbcape_000.txt.gz
CAPE
0 0 0 0 0 0 0 0 0 0 0 0 46 500 559 541 425 326 320 531 513 350 136 137 331 16 0 0 10 35 41 25 14 22 9 21 14 0 0 0 0 0 0
0 0 0 0 0 0 0 0 0 0 0 0 0 93 536 480 375 446 250 246 494 405 193 134 343 83 8 0 0 31 36 9 17 21 19 13 7 7 9 0 0 0 0
0 0 0 0 0 0 0 0 0 0 0 0 0 0 56 363 301 299 372 271 154 372 340 351 535 211 52 7 0 16 23 23 26 9 27 5 9 9 6 0 0 0 0
0 0 0 0 0 0 0 0 0 0 0 0 0 0 0 181 283 248 252 393 163 48 221 331 489 442 142 48 2 12 19 31 17 15 16 4 8 4 7 12 2 0 0
0 0 0 0 0 0 0 0 0 0 0 0 0 0 0 0 256 281 194 167 294 122 12 198 285 365 524 96 52 35 23 17 19 10 7 8 10 6 8 10 6 1 1
0 0 0 0 0 0 0 0 0 0 0 0 0 0 0 0 0 68 224 199 192 214 40 1 50 70 401 358 150 71 18 16 21 12 9 9 10 8 7 11 6 6 3
0 0 0 0 0 0 0 0 0 0 0 0 0 0 0 0 0 0 38 220 230 244 158 23 0 0 49 322 152 157 58 25 15 12 11 9 11 10 10 6 3 4 6
0 0 0 0 0 0 0 0 0 0 0 0 0 0 1 0 0 0 1 66 178 283 148 98 3 0 0 8 10 114 95 33 15 13 10 12 13 5 5 3 6 8 3
0 0 0 0 0 0 0 0 0 0 0 0 1 21 17 3 7 0 0 0 55 134 150 63 17 0 0 2 6 33 44 47 34 16 17 16 15 11 10 7 4 5 4
0 0 0 0 0 0 0 0 0 0 0 0 0 11 18 45 50 14 0 0 0 100 103 121 74 22 4 9 2 0 31 48 31 20 20 17 13 9 13 16 13 3 7
0 0 0 0 0 0 0 0 0 0 0 0 5 34 0 0 16 89 30 1 0 6 113 118 95 73 53 8 0 0 26 44 26 16 28 16 10 10 12 26 11 4 2
0 0 0 0 0 0 0 0 0 0 0 11 5 23 8 18 17 80 83 30 47 0 12 141 115 88 54 26 0 0 24 27 28 20 7 12 15 9 9 10 6 7 3
0 0 0 0 0 0 0 0 0 0 1 15 14 27 0 1 9 55 68 36 80 0 1 115 100 110 6 26 0 0 5 15 19 18 0 0 13 25 9 6 4 6 3
0 0 0 0 0 0 0 0 0 0 0 21 40 4 0 0 7 40 35 52 72 2 0 53 121 87 0 8 0 0 0 12 13 13 0 0 8 20 17 18 12 3 0
0 0 0 0 0 0 0 0 0 0 12 48 15 2 15 24 57 32 30 46 70 21 4 10 42 67 28 30 0 0 0 6 15 6 0 0 3 10 9 17 1 0 1
0 0 0 0 0 0 0 0 0 0 22 6 4 15 17 16 20 19 24 37 68 52 5 19 17 53 7 26 3 0 0 0 7 1 0 0 0 0 0 0 0 0 0
0 0 0 0 0 0 0 0 0 0 0 8 5 11 22 18 8 10 19 79 72 29 22 20 25 21 33 5 0 0 0 0 0 0 0 0 0 0 0 0 0 0 0
0 0 0 0 0 0 0 0 0 0 0 7 18 25 16 22 10 9 81 50 53 19 71 33 23 15 19 0 0 0 0 0 0 0 0 0 0 0 0 0 0 0 0
0 0 0 0 0 0 0 0 0 0 0 3 25 23 53 45 57 14 18 41 37 68 48 50 4 10 1 0 0 0 0 0 0 1 0 0 0 0 0 0 0 0 0
0 0 0 0 0 0 0 0 0 0 0 14 21 39 17 19 32 27 14 7 53 52 64 33 3 26 0 0 0 0 0 0 0 6 0 0 0 0 0 0 0 0 0
0 0 0 0 0 0 0 0 1 1 2 11 19 9 24 39 56 55 87 16 65 54 51 33 10 28 0 0 0 0 0 5 2 2 0 0 0 0 0 0 0 0 0
0 0 0 0 0 0 11 37 39 8 4 7 3 5 12 33 13 27 80 135 51 10 17 19 6 32 0 0 0 1 0 23 3 1 0 0 0 0 0 0 0 0 0
0 0 0 0 0 0 5 10 55 15 2 0 6 10 16 20 22 10 15 115 237 105 14 0 40 1 0 0 0 9 4 3 0 1 0 0 0 0 0 0 0 0 0
0 0 0 0 0 0 8 13 24 5 0 0 1 11 34 10 6 14 31 84 70 53 49 18 2 5 0 0 0 1 1 3 0 0 0 0 0 0 0 0 0 0 0
0 0 0 0 0 0 14 16 35 3 7 0 2 27 38 21 19 29 38 24 29 37 105 38 5 0 18 0 0 2 19 22 5 1 0 0 0 0 0 0 0 0 0
0 0 0 0 11 0 8 17 58 10 3 6 9 9 24 14 26 35 22 10 28 20 29 32 3 7 24 6 0 0 7 5 4 2 0 0 0 0 0 0 0 0 0

GFSMA_con_sbcape_003.txt.gz
CAPE
0 0 0 0 0 0 0 0 0 0 0 0 0 0 0 239 534 543 581 769 928 929 784 516 611 534 85 5 22 59 42 7 4 18 15 21 27 10 0 1 0 0 0
0 0 0 0 0 0 0 0 0 0 0 0 0 0 0 0 237 598 534 467 718 886 700 543 817 624 212 29 18 59 65 28 6 5 14 20 25 16 8 0 0 0 0
0 0 0 0 0 0 0 0 0 0 0 0 0 0 0 0 0 43 321 436 392 554 660 671 737 738 437 85 43 73 162 86 6 2 19 14 15 7 5 1 0 0 0
0 0 0 0 0 0 0 0 0 0 0 0 0 0 0 0 0 0 21 292 438 456 441 513 598 732 654 221 122 189 136 135 23 5 9 15 11 9 7 6 1 1 0
0 0 0 0 0 0 0 0 0 0 0 0 0 0 0 0 0 0 0 23 232 287 251 274 552 604 743 465 194 112 166 72 49 23 7 19 12 14 10 9 7 2 1
0 0 0 0 0 0 0 0 0 0 0 0 0 0 0 0 0 0 0 0 0 113 314 156 177 313 632 635 504 170 132 34 61 59 19 17 16 7 13 13 7 7 4
0 0 0 0 0 0 0 0 0 0 0 0 0 0 0 0 0 0 0 0 0 0 147 321 121 164 230 483 473 450 221 150 34 49 24 13 10 15 10 14 10 7 3
0 0 0 0 0 0 0 0 0 0 0 0 0 0 0 0 0 0 0 0 0 0 0 84 234 92 72 126 212 261 226 404 42 50 39 20 8 12 7 11 10 6 4
0 0 0 0 0 0 0 0 0 0 0 0 0 0 1 0 0 0 0 0 0 0 0 0 110 166 68 12 264 171 133 250 262 96 44 21 16 15 12 8 11 9 7
0 0 0 0 0 0 0 0 0 0 0 0 0 0 4 48 17 0 0 0 0 1 0 0 0 76 69 11 79 183 122 114 150 234 85 26 25 19 21 14 6 7 7
0 0 0 0 0 0 0 0 0 0 0 0 0 0 17 10 16 32 18 0 0 0 4 0 0 0 62 43 13 115 124 119 75 162 172 89 29 16 23 21 19 6 6
0 0 0 0 0 0 0 0 0 0 0 0 0 0 3 8 7 29 30 1 0 0 11 0 0 0 0 82 84 107 146 98 56 116 86 150 78 27 27 25 27 8 4
0 0 0 0 0 0 0 0 0 0 0 0 0 0 1 31 44 12 34 4 8 4 26 2 0 0 0 5 157 87 115 74 65 116 40 75 61 37 119 40 22 7 8
0 0 0 0 0 0 0 0 0 0 0 0 0 1 35 26 13 14 18 16 11 5 21 0 0 0 0 0 186 115 67 70 47 67 65 56 50 48 76 70 23 11 6
0 0 0 0 0 0 0 0 0 0 0 0 1 10 5 2 2 27 32 36 22 26 6 0 2 0 0 0 73 143 55 58 46 38 33 28 43 36 15 23 23 16 6
0 0 0 0 0 0 0 0 0 0 0 0 0 0 0 6 9 21 23 19 25 35 29 31 29 0 5 20 114 78 28 16 20 35 17 18 24 30 17 13 6 0 7
0 0 0 0 0 0 0 0 0 0 0 0 0 2 10 11 31 23 17 26 11 17 17 1 11 0 0 0 79 79 10 17 8 31 12 7 11 16 5 0 0 0 0
0 0 0 0 0 0 0 0 0 0 0 0 0 1 7 28 28 45 33 21 5 8 68 11 36 34 6 0 33 39 26 16 0 17 14 0 1 1 0 0 0 0 0
0 0 0 0 0 0 0 0 0 0 0 0 0 0 9 22 27 21 35 36 20 97 39 70 20 7 56 11 18 33 20 0 0 5 6 0 0 0 0 0 0 0 0
0 0 0 0 0 0 0 0 0 0 0 0 0 0 7 27 20 24 45 35 12 19 14 5 12 23 44 28 8 3 3 1 0 13 0 0 1 0 0 0 0 0 0
0 0 0 0 0 0 0 0 0 0 0 0 0 1 18 35 58 76 87 37 35 3 8 41 45 67 14 3 19 0 0 0 0 0 0 0 0 0 0 0 0 0 0
0 0 0 0 0 0 0 16 32 6 0 6 0 0 4 24 27 89 42 40 30 1 15 68 46 46 8 28 0 0 0 0 1 8 1 1 0 0 0 0 0 0 0
0 0 0 0 0 0 0 18 43 18 1 0 0 0 2 2 23 10 23 39 18 81 21 27 23 10 3 0 0 0 0 0 0 1 0 1 0 0 0 0 0 0 0
0 0 0 0 0 0 3 19 36 11 1 0 0 0 4 9 0 10 22 16 4 12 57 39 3 0 0 3 1 0 0 0 0 3 0 1 0 0 0 0 0 0 0
0 0 0 0 0 0 1 12 10 1 0 0 0 5 9 1 0 31 32 16 6 3 12 93 12 11 1 0 0 0 0 0 10 3 0 0 0 0 0 0 0 0 0
0 0 0 0 0 0 0 0 0 2 0 0 17 1 0 8 18 30 24 12 4 4 88 73 78 31 12 8 12 0 0 4 3 2 0 0 0 0 0 0 0 0 0

GFSMA_con_sbcape_006.txt.gz
CAPE
0 0 0 0 0 0 0 0 0 0 0 0 0 0 0 0 0 0 28 574 947 904 808 998 1037 729 454 103 156 97 102 40 34 26 30 17 18 13 16 7 3 4 1
0 0 0 0 0 0 0 0 0 0 0 0 0 0 0 0 0 0 0 0 17 493 593 747 1070 925 729 411 225 307 252 155 59 36 37 20 34 17 12 8 10 1 3
0 0 0 0 0 0 0 0 0 0 0 0 0 0 0 0 0 0 0 0 0 46 348 427 606 816 766 673 313 407 424 169 52 37 34 32 49 24 13 11 7 6 3
0 0 0 0 0 0 0 0 0 0 0 0 0 0 0 0 0 0 0 0 0 0 0 117 389 711 721 692 544 506 502 366 99 36 46 43 50 16 17 11 6 11 5
0 0 0 0 0 0 0 0 0 0 0 0 0 0 0 0 0 0 0 0 0 0 0 2 36 515 585 659 631 498 603 423 274 62 54 88 46 13 17 19 7 12 7
0 0 0 0 0 0 0 0 0 0 0 0 0 0 0 0 0 0 0 0 0 0 0 0 0 31 469 473 793 680 533 303 363 116 18 65 49 20 10 30 16 9 10
0 0 0 0 0 0 0 0 0 0 0 0 0 0 0 0 0 0 0 0 0 0 0 0 0 0 57 600 591 718 645 360 373 137 34 1 56 27 14 10 18 7 7
0 0 0 0 0 0 0 0 0 0 0 0 0 0 0 0 0 0 0 0 0 0 0 0 0 0 0 101 116 376 415 792 507 333 44 24 60 45 23 17 8 5 6
0 0 0 0 0 0 0 0 0 0 0 0 0 0 0 0 0 0 0 0 0 0 0 0 4 0 0 0 77 249 189 405 707 649 94 41 39 71 34 16 6 8 9
0 0 0 0 0 0 0 0 0 0 0 0 0 0 0 0 0 0 0 0 0 0 0 0 0 2 0 0 0 241 260 271 354 614 391 84 40 90 54 19 9 9 9
0 0 0 0 0 0 0 0 0 0 0 0 0 0 0 0 0 1 0 0 0 0 0 0 0 4 0 0 4 0 308 292 283 329 387 294 48 122 82 34 14 8 10
0 0 0 0 0 0 0 0 0 0 0 0 0 0 0 0 0 0 2 2 4 0 0 0 0 12 5 6 3 0 0 326 297 276 281 242 273 239 154 56 30 12 17
0 0 0 0 0 0 0 0 0 0 0 0 0 0 0 0 0 17 19 0 2 2 1 1 0 1 9 9 0 0 0 46 264 256 215 189 218 247 268 113 41 27 15
0 0 0 0 0 0 0 0 0 0 0 0 0 0 0 0 0 9 12 25 10 15 6 1 2 0 1 0 0 3 0 0 165 197 196 124 125 120 185 175 174 69 16
0 0 0 0 0 0 0 0 0 0 0 0 0 0 0 0 0 0 11 16 29 15 2 3 10 0 31 29 13 2 1 0 151 154 116 90 52 84 133 179 150 38 22
0 0 0 0 0 0 0 0 0 0 0 0 0 0 0 0 0 0 12 31 31 29 12 2 1 0 15 75 0 0 0 1 92 112 62 48 45 34 78 95 32 18 12
0 0 0 0 0 0 0 0 0 0 0 0 0 0 0 0 0 0 14 24 27 30 27 12 3 2 11 14 0 0 0 3 62 151 55 8 29 20 33 22 4 4 4
0 0 0 0 0 0 0 0 0 0 0 0 0 0 0 0 0 1 16 30 25 26 31 12 3 4 30 0 0 0 1 60 117 164 70 18 14 17 7 0 0 0 0
0 0 0 0 0 0 0 0 0 0 0 0 0 0 0 0 0 1 26 9 24 23 9 7 14 54 3 0 0 2 0 161 133 108 54 26 7 6 0 0 0 0 0
0 0 0 0 0 0 0 0 0 0 0 0 0 0 0 0 0 9 37 31 36 54 30 38 8 32 3 0 11 23 11 93 96 91 38 21 14 2 0 0 0 0 0
0 0 0 0 0 0 0 0 0 0 0 0 0 0 0 4 46 51 46 42 34 36 15 9 54 27 2 0 8 0 29 52 68 45 11 25 27 3 0 0 0 0 0
0 0 0 0 0 0 0 0 11 1 0 0 0 1 0 2 0 49 51 46 46 59 42 5 2 30 0 9 8 0 9 41 73 22 0 17 6 1 0 0 0 0 0
0 0 0 0 0 0 0 1 13 4 7 0 4 0 0 0 4 7 12 17 33 30 34 7 4 14 11 0 1 2 17 19 14 0 0 0 0 0 0 0 0 0 0
0 0 0 0 0 0 0 2 7 0 0 0 0 0 0 0 0 14 5 26 10 6 2 17 0 35 24 10 8 20 9 10 0 0 0 0 0 0 0 0 0 0 0
0 0 0 0 0 0 0 0 1 0 0 0 0 0 1 0 0 36 27 25 15 6 3 11 71 55 50 20 1 0 0 0 0 0 0 0 0 0 0 0 0 0 0
0 0 0 0 0 0 0 0 1 0 0 0 4 1 5 0 11 40 32 28 21 10 31 19 44 16 38 19 7 0 0 0 0 0 0 0 0 0 0 0 0 0 0

GFSMA_con_sbcape_009.txt.gz
CAPE
0 0 0 0 0 0 0 0 0 0 0 0 0 0 0 0 0 0 0 0 0 1 17 290 461 643 795 767 259 408 207 72 49 41 50 31 23 20 20 18 16 7 8
0 0 0 0 0 0 0 0 0 0 0 0 0 0 0 0 0 0 0 0 0 0 0 3 24 279 425 755 649 687 647 398 209 135 34 46 31 31 28 18 16 6 5
0 0 0 0 0 0 0 0 0 0 0 0 0 0 0 0 0 0 0 0 0 0 0 0 0 4 92 587 785 850 757 633 405 257 59 47 55 48 32 21 11 9 9
0 0 0 0 0 0 0 0 0 0 0 0 0 0 0 0 0 0 0 0 0 0 0 0 0 0 0 0 723 795 870 735 576 369 122 66 48 70 34 18 11 15 11
0 0 0 0 0 0 0 0 0 0 0 0 0 0 0 0 0 0 0 0 0 0 0 0 0 0 0 0 12 746 797 866 728 582 276 99 84 74 42 27 11 14 14
0 0 0 0 0 0 0 0 0 0 0 0 0 0 0 0 0 0 0 0 0 0 0 0 0 0 0 0 0 22 770 740 813 712 499 198 138 56 41 53 20 8 18
0 0 0 0 0 0 0 0 0 0 0 0 0 0 0 0 0 0 0 0 0 0 0 0 0 0 0 3 0 0 10 856 828 687 413 83 206 64 43 49 38 20 10
0 0 0 0 0 0 0 0 0 0 0 0 0 0 0 0 0 0 0 0 0 0 0 0 0 0 0 0 0 0 0 12 928 831 516 249 63 75 43 39 47 31 14
0 0 0 0 0 0 0 0 0 0 0 0 0 0 0 0 0 0 0 0 0 0 0 0 0 0 0 0 0 0 0 1 39 922 773 398 100 62 65 34 44 40 31
0 0 0 0 0 0 0 0 0 0 0 0 0 0 0 0 0 0 0 0 0 0 0 0 0 0 0 0 1 3 3 4 1 609 833 585 268 131 105 49 37 44 33
0 0 0 0 0 0 0 0 0 0 0 0 0 0 0 0 0 0 0 0 0 0 0 0 0 0 0 0 4 7 5 13 4 3 705 737 509 208 176 106 33 50 26
0 0 0 0 0 0 0 0 0 0 0 0 0 0 0 0 0 0 0 0 0 0 0 0 0 0 0 0 8 21 8 12 6 2 2 560 514 416 265 187 70 49 24
0 0 0 0 0 0 0 0 0 0 0 0 0 0 0 0 0 0 0 0 0 0 0 0 0 0 0 0 0 20 18 7 5 2 0 408 358 318 461 367 160 52 41
0 0 0 0 0 0 0 0 0 0 0 0 0 0 0 0 0 0 0 0 0 0 1 1 4 1 0 0 1 22 30 8 6 1 0 338 222 197 388 362 318 163 51
0 0 0 0 0 0 0 0 0 0 0 0 0 0 0 0 0 0 0 0 1 2 6 9 7 3 0 0 4 14 44 45 1 6 2 164 229 175 331 351 274 150 125
0 0 0 0 0 0 0 0 0 0 0 0 0 0 0 0 0 0 0 0 1 11 20 11 7 9 4 5 1 14 39 16 2 0 2 34 196 139 262 190 112 63 34
0 0 0 0 0 0 0 0 0 0 0 0 0 0 0 0 0 0 0 0 0 15 35 9 1 2 3 4 0 2 56 18 0 0 7 3 70 127 130 73 22 7 4
0 0 0 0 0 0 0 0 0 0 0 0 0 0 0 0 0 0 0 0 0 2 16 15 7 0 5 1 5 3 40 9 1 1 43 97 34 69 35 10 0 0 0
0 0 0 0 0 0 0 0 0 0 0 0 0 0 0 0 0 0 0 0 0 16 33 31 31 18 2 6 11 39 77 0 0 4 233 104 11 19 8 0 0 0 0
0 0 0 0 0 0 0 0 0 0 0 0 0 0 0 0 0 0 0 2 24 33 26 18 27 10 2 9 20 25 17 0 9 129 289 80 19 8 2 0 0 0 0
0 0 0 0 0 0 0 0 0 0 0 0 0 0 0 3 59 50 28 34 24 26 21 21 48 32 5 48 29 12 0 2 22 253 218 48 31 7 0 0 0 0 0
0 0 0 0 0 0 0 0 0 0 0 0 0 0 0 0 0 34 46 51 31 39 39 58 52 21 11 0 1 0 0 5 162 319 102 38 13 0 0 0 0 0 0
0 0 0 0 0 0 0 0 0 0 0 0 0 0 0 0 2 0 0 18 13 60 51 27 13 6 0 0 4 1 6 0 111 126 71 8 4 0 0 0 0 0 0
0 0 0 0 0 0 0 0 1 0 0 0 0 0 0 0 0 17 3 9 14 9 16 27 21 4 0 12 0 0 13 0 27 20 1 0 0 0 0 0 0 0 0
0 0 0 0 0 0 0 0 0 0 0 0 0 0 0 1 16 42 16 22 24 5 2 19 17 53 27 16 0 7 8 13 16 1 0 0 1 0 0 0 0 0 0
0 0 0 0 0 0 0 0 0 0 0 0 0 0 26 9 28 27 28 35 5 2 20 5 1 29 49 36 22 0 6 38 0 0 0 0 0 0 0 0 0 0 0